Location: McFarlands Corners
(41.4117°N, 81.3382°W)
Time: 22:46:53
(UTC+00:00)

A-11 Canister half - Visible Passes

Search period start: 16 February 2026 00:00
Search period end: 26 February 2026 00:00
Orbit: 1525 x 1682 km, 47.3° (Epoch: 16 February)

Date Brightness Start Highest point End Pass type
(mag) Time Alt. Az. Time Alt. Az. Time Alt. Az.
16 Feb 9.1 00:05:53 10° W 00:15:11 68° NNW 00:22:28 18° ENE visible
16 Feb 9.0 02:11:51 10° WNW 02:20:45 65° N 02:20:45 65° N visible
16 Feb 10.8 04:17:06 10° WNW 04:19:02 18° WNW 04:19:02 18° WNW visible
16 Feb 9.2 23:43:59 10° W 23:53:19 69° NNW 00:01:52 13° ENE visible
17 Feb 9.0 01:50:00 10° WNW 01:59:14 64° N 02:00:09 62° NE visible
17 Feb 10.5 03:55:16 10° WNW 03:58:27 25° WNW 03:58:27 25° WNW visible
17 Feb 9.2 23:22:07 10° W 23:31:27 70° NNW 23:40:46 10° ENE visible
18 Feb 9.0 01:28:07 10° WNW 01:37:21 64° N 01:39:34 52° ENE visible
18 Feb 10.1 03:33:26 10° WNW 03:37:51 33° WNW 03:37:51 33° WNW visible
19 Feb 9.1 01:06:15 10° WNW 01:15:29 63° N 01:18:58 41° ENE visible
19 Feb 9.7 03:11:35 10° WNW 03:17:16 43° WNW 03:17:16 43° WNW visible
20 Feb 9.1 00:44:22 10° WNW 00:53:36 62° N 00:58:24 32° ENE visible
20 Feb 9.3 02:49:45 10° WNW 02:56:41 56° WNW 02:56:41 56° WNW visible
21 Feb 9.1 00:22:29 10° WNW 00:31:44 62° N 00:37:50 24° E visible
21 Feb 9.0 02:27:55 10° WNW 02:36:07 73° WNW 02:36:07 73° WNW visible
21 Feb 11.0 04:33:31 10° WNW 04:34:24 13° WNW 04:34:24 13° WNW visible
22 Feb 9.2 00:00:36 10° WNW 00:09:51 62° N 00:17:17 17° E visible
22 Feb 8.8 02:06:05 10° WNW 02:15:25 88° SSW 02:15:35 87° SSE visible
22 Feb 10.8 04:11:37 10° WNW 04:13:53 18° W 04:13:53 18° W visible
22 Feb 9.2 23:38:43 10° WNW 23:47:58 61° N 23:56:47 12° E visible
23 Feb 8.8 01:44:13 10° WNW 01:53:34 90° N 01:55:05 68° ESE visible
23 Feb 10.5 03:49:42 10° WNW 03:53:22 24° W 03:53:22 24° W visible
24 Feb 8.8 01:22:23 10° WNW 01:31:44 87° NNE 01:34:37 51° ESE visible
24 Feb 10.2 03:27:48 10° WNW 03:32:54 30° W 03:32:54 30° W visible
25 Feb 8.9 01:00:32 10° WNW 01:09:54 85° NNE 01:14:11 38° ESE visible
25 Feb 9.9 03:05:55 10° WNW 03:12:29 36° WSW 03:12:29 36° WSW visible
